Location: Madrid
(40.4000°N, 3.6830°W)
Time: 08:39:08
(UTC+02:00)

ISS - Pass Details

Date: 11 October 2019
Orbit: 411 x 421 km, 51.6° (Epoch: 14 October)

Event Time Altitude Azimuth Distance (km) Brightness Sun altitude
Rises 20:30:13 0° 296° (WNW) 2,344 1.3 -10.1°
Reaches altitude 10° 20:32:33 10° 282° (WNW) 1,477 0.5 -10.5°
Maximum altitude 20:35:17 24° 226° (SW) 895 -1.5 -11.0°
Drops below altitude 10° 20:38:01 10° 171° (S) 1,469 -1.1 -11.6°
Sets 20:40:19 0° 156° (SSE) 2,326 -0.2 -12.0°
